Simultaneous Nadir Overpasses (SNOs) Predictions

Prediction of SNOs between GOES-15 and NOAA-20 Satellite Orbit:

Table of predicted SNOs for the next 14.0 days since TLE Epoch: 6/17/2023
Index Date Time (GOES-15) GOES-15 Lat,Lon NOAA-20 Lat,Lon Distance(km) Time Diff (sec)
1 06/17/2023 12:13:15 -0.09,-162.09 -0.05,-162.17 9.09 80
2 06/20/2023 00:19:13 0.11,-163.09 0.13,-163.01 8.97 80
3 06/22/2023 12:19:41 -0.12,-164.07 -0.16,-163.80 30.22 80
4 06/25/2023 00:25:39 0.14,-165.05 0.24,-164.64 46.52 80
5 06/26/2023 12:44:50 -0.17,-165.64 0.77,-169.95 491.65 80
6 06/27/2023 12:28:47 -0.15,-166.02 -0.28,-165.43 66.21 80
7 06/29/2023 00:48:07 0.19,-166.60 -0.73,-170.78 477.17 80
8 06/30/2023 00:32:03 0.18,-166.97 0.32,-166.27 80.12 80
